This demonstration page uses our WeatherBlox Daily Observations layout. Learn more.

Left ArrowRight Arrow

Hourly Observations for July 27, 2020

Temp ( °F °C ) Dew Point ( °F °C ) Humidity (%) Winds ( mph kmh ) Pressure ( in mb ) Visibility ( mi km ) Precip ( " mm )
12:51 am 00:51 Clear 82 27.8 63 17.2 53 53 E 7 11 29.83 1010 10 16.0934 0 0
1:51 am 01:51 Clear 82 27.8 61 16.1 49 49 E 8 13 29.81 1010 10 16.0934 0 0
2:51 am 02:51 Clear 80 26.7 63 17.2 56 56 SE 12 19 29.82 1010 10 16.0934 0 0
3:51 am 03:51 Clear 79 26.1 63 17.2 58 58 SE 9 15 29.83 1010 10 16.0934 0 0
4:51 am 04:51 Clear 77 25 63 17.2 62 62 ESE 6 9 29.85 1011 10 16.0934 0 0
5:51 am 05:51 Sunny 78 25.6 64 17.8 62 62 SSE 10 17 29.87 1011 10 16.0934 0 0
6:51 am 06:51 Sunny 78 25.6 64 17.8 62 62 SSE 7 11 29.89 1012 10 16.0934 0 0
7:51 am 07:51 Sunny 81 27.2 64 17.8 57 57 SSE 8 13 29.89 1012 10 16.0934 0 0
8:51 am 08:51 Sunny 84 28.9 63 17.2 49 49 SE 8 13 29.89 1012 10 16.0934 0 0
9:51 am 09:51 Sunny 89 31.7 63 17.2 42 42 SE 12 19 29.87 1012 10 16.0934 0 0
10:51 am 10:51 Cloudy 92 33.3 62 16.7 37 37 E 12 19 29.85 1011 10 16.0934 0 0
11:51 am 11:51 Mostly Sunny 94 34.4 62 16.7 35 35 ESE 10 17 29.83 1010 10 16.0934 0 0
12:51 pm 12:51 Sunny 96 35.6 61 16.1 31 31 ESE 9 15 29.8 1009 10 16.0934 0 0
1:51 pm 13:51 Sunny 98 36.7 61 16.1 29 29 ESE 7 11 29.75 1008 10 16.0934 0 0
2:51 pm 14:51 Mostly Sunny 98 36.7 57 13.9 25 25 SSE 13 20 29.74 1007 10 16.0934 0 0
3:51 pm 15:51 Sunny 97 36.1 61 16.1 30 30 S 13 20 29.72 1007 10 16.0934 0 0
4:51 pm 16:51 Sunny 95 35 60 15.6 31 31 SSW 16 26 29.73 1007 10 16.0934 0 0
5:51 pm 17:51 Sunny 95 35 59 15 30 30 SSW 10 17 29.71 1006 10 16.0934 0 0
6:51 pm 18:51 Sunny 94 34.4 58 14.4 30 30 Calm 29.74 1007 10 16.0934 0 0
7:51 pm 19:51 Clear 89 31.7 60 15.6 38 38 NE 12 19 29.76 1008 10 16.0934 0 0
8:51 pm 20:51 Clear 88 31.1 59 15 38 38 NE 14 22 29.76 1008 10 16.0934 0 0
9:51 pm 21:51 Clear 85 29.4 62 16.7 46 46 WNW 8 13 29.77 1008 10 16.0934 0 0
10:51 pm 22:51 Clear 82 27.8 62 16.7 51 51 NNE 5 7 29.77 1008 10 16.0934 0 0
11:51 pm 23:51 Clear 82 27.8 62 16.7 51 51 SSW 5 7 29.78 1008 10 16.0934 0 0

Powered by AerisWeather